(216947) = 1999 TM258

Discovered at Socorro on 1999-10-09 by LINEAR.

Orbit

Orbit type: Mars-crosser

Note: WebGL enabled browser required.

epoch2023-09-13.0
epoch JD2460200.5
perihelion date2023-02-17.64375
perihelion JD2459993.14375
argument of perihelion (°)71.09310
ascending node (°)259.29833
inclination (°)2.60280
eccentricity0.2669996
perihelion distance (AU)1.6471889
Tisserand w.r.t. Jupiter3.6
ΔV w.r.t. Earth (km/sec)7.9
semimajor axis (AU)2.2471870
mean anomaly (°)60.66835
mean daily motion (°/day)0.29258030
aphelion distance (AU)2.847
period (years)3.37
P-vector [x]0.86846207
P-vector [y]-0.47022494
P-vector [z]-0.15704187
Q-vector [x]0.49374338
Q-vector [y]0.79188197
Q-vector [z]0.35936113
absolute magnitude17.53
phase slope0.15
uncertainty0
referenceMPEC 2024-A34
observations used313
oppositions17
arc length (days)8884
first opposition used1999
last opposition used2024
residual rms (arc-secs)0.85
perturbers coarse indicatorM-v
perturbers precise indicator003Ek
first observation date used1999-09-07.0
last observation date used2024-01-03.0
computer nameMPCLINUX
JD of orbit computation2456670.661878
perihelion JD uncertainty (days)2.1075E-05
argument of perihelion uncertainty (°)6.3328E-05
ascending node uncertainty (°)6.2945E-05
inclination uncertainty (°)3.2520E-06
eccentricity uncertainty 3.0747E-08
perihelion distance uncertainty (AU)7.2502E-08
Minimum Orbit Intersection Distances (in AU)
for orbit epoch: 2460200.5, reference: E2024-A34
Mercury1.24426
Venus0.92566
Earth0.63807
Mars0.2873
Jupiter2.51492
Saturn6.3762
Uranus15.618
Neptune27.5349

Observations

321 total observations over interval: 1999 09 07.40368 – 2024 01 03.352029
These data are available for download (format description).

Date (UT) J2000 RA J2000 Dec Magn Location Ref
1999 09 07.40368 00 35 25.94 +10 20 37.9 19.3   704 – Lincoln Laboratory ETS, New Mexico MPS 16563
1999 09 07.41507 00 35 25.51 +10 20 36.7 19.6   704 – Lincoln Laboratory ETS, New Mexico MPS 16563
1999 09 07.44911 00 35 24.55 +10 20 33.4 19.5   704 – Lincoln Laboratory ETS, New Mexico MPS 16563
1999 09 18.26728 00 28 58.85 +09 45 39.8 19.1 R 703 – Catalina Sky Survey MPS 16563
1999 09 18.27986 00 28 58.28 +09 45 36.4 19.1 R 703 – Catalina Sky Survey MPS 16563
1999 09 18.29244 00 28 57.71 +09 45 32.3 18.9 R 703 – Catalina Sky Survey MPS 16563
1999 09 18.30512 00 28 57.11 +09 45 28.7 19.3 R 703 – Catalina Sky Survey MPS 16563
1999 10 09.27926 00 13 19.04 +07 34 37.5 18.7   704 – Lincoln Laboratory ETS, New Mexico MPS 15456
1999 10 09.29268 00 13 18.40 +07 34 32.0 19.2   704 – Lincoln Laboratory ETS, New Mexico MPS 15456
1999 10 09.30573 00 13 17.89 +07 34 27.2 19.1   704 – Lincoln Laboratory ETS, New Mexico MPS 15456
1999 10 09.31879 00 13 17.34 +07 34 21.1 19.3   704 – Lincoln Laboratory ETS, New Mexico MPS 15456
1999 10 09.33222 00 13 16.82 +07 34 15.6 19.6   704 – Lincoln Laboratory ETS, New Mexico MPS 15456
1999 10 15.25504 00 09 52.15 +06 54 54.1 18.8   704 – Lincoln Laboratory ETS, New Mexico MPS 15456
1999 10 15.27086 00 09 51.59 +06 54 48.2 19.7   704 – Lincoln Laboratory ETS, New Mexico MPS 15456
1999 10 15.28677 00 09 51.02 +06 54 43.0 20.0   704 – Lincoln Laboratory ETS, New Mexico MPS 15456
1999 10 15.30335 00 09 50.52 +06 54 36.1 19.9   704 – Lincoln Laboratory ETS, New Mexico MPS 15456
1999 10 15.31924 00 09 50.01 +06 54 28.7 20.0   704 – Lincoln Laboratory ETS, New Mexico MPS 15456
2002 06 12.30653 15 58 30.73 -21 15 41.6 20.4   644 – Palomar Mountain/NEAT MPS 133061
2002 06 12.32804 15 58 29.36 -21 15 35.1 20.3   644 – Palomar Mountain/NEAT MPS 133061
2002 06 12.35394 15 58 27.80 -21 15 27.5 20.1   644 – Palomar Mountain/NEAT MPS 133061
2003 12 21.274370 07 57 50.138 +18 47 57.80 21.27 V 645 – Apache Point-Sloan Digital Sky Survey MPS 136837
2003 12 21.277842 07 57 49.943 +18 47 58.18 22.09   645 – Apache Point-Sloan Digital Sky Survey MPS 136837
2003 12 21.32866 07 57 47.09 +18 48 02.7 22.1 V 691 – Steward Observatory, Kitt Peak-Spacewatch MPS 133061
2003 12 21.35893 07 57 45.41 +18 48 05.1 22.1 V 691 – Steward Observatory, Kitt Peak-Spacewatch MPS 133061
2003 12 21.38566 07 57 43.92 +18 48 07.5 21.5 V 691 – Steward Observatory, Kitt Peak-Spacewatch MPS 133061
2005 03 17.41937 13 10 16.85 -11 32 08.3 21.3 V 691 – Steward Observatory, Kitt Peak-Spacewatch MPS 133061
2005 03 17.44864 13 10 15.40 -11 32 00.7 21.3 V 691 – Steward Observatory, Kitt Peak-Spacewatch MPS 133061
2005 03 17.47428 13 10 14.15 -11 31 54.3 21.0 V 691 – Steward Observatory, Kitt Peak-Spacewatch MPS 133061
2006 09 28.43274 04 57 51.08 +24 38 46.6 20.3 V G96 – Mt. Lemmon Survey MPS 182415
2006 09 28.43845 04 57 51.30 +24 38 46.7 20.2 V G96 – Mt. Lemmon Survey MPS 182415
2006 09 28.44406 04 57 51.48 +24 38 47.0 20.2 V G96 – Mt. Lemmon Survey MPS 182415
2006 09 28.44972 04 57 51.76 +24 38 47.2 20.4 V G96 – Mt. Lemmon Survey MPS 182415
2006 10 28.439781 04 59 42.903 +24 22 38.81   645 – Apache Point-Sloan Digital Sky Survey MPS 483316
2006 10 28.440611 04 59 42.876 +24 22 38.73   645 – Apache Point-Sloan Digital Sky Survey MPS 483316
2006 10 28.442269 04 59 42.810 +24 22 38.59   645 – Apache Point-Sloan Digital Sky Survey MPS 483316
2006 10 28.443098 04 59 42.781 +24 22 38.44   645 – Apache Point-Sloan Digital Sky Survey MPS 483316
2006 11 10.34323 04 49 25.61 +23 52 45.6 20.0 V 691 – Steward Observatory, Kitt Peak-Spacewatch MPS 186474
2006 11 10.36059 04 49 24.52 +23 52 42.9 20.2 V 691 – Steward Observatory, Kitt Peak-Spacewatch MPS 186474
2006 11 10.37795 04 49 23.40 +23 52 39.6 20.0 V 691 – Steward Observatory, Kitt Peak-Spacewatch MPS 186474
2006 11 16.33714 04 42 55.78 +23 33 34.2 19.9 V 691 – Steward Observatory, Kitt Peak-Spacewatch MPS 186721
2006 11 16.35455 04 42 54.53 +23 33 30.6 19.9 V 691 – Steward Observatory, Kitt Peak-Spacewatch MPS 186721
2006 11 16.37194 04 42 53.28 +23 33 27.3 19.9 V 691 – Steward Observatory, Kitt Peak-Spacewatch MPS 186721
2006 11 21.26324 04 37 04.65 +23 15 28.7 20.1   704 – Lincoln Laboratory ETS, New Mexico MPS 188291
2006 11 21.28786 04 37 02.90 +23 15 22.4 20.3   704 – Lincoln Laboratory ETS, New Mexico MPS 188291
2006 11 21.30018 04 37 01.91 +23 15 21.1 20.5   704 – Lincoln Laboratory ETS, New Mexico MPS 188291
2006 11 27.22391 04 29 42.64 +22 51 22.8   691 – Steward Observatory, Kitt Peak-Spacewatch MPS 190250
2006 11 27.24122 04 29 41.30 +22 51 18.5   691 – Steward Observatory, Kitt Peak-Spacewatch MPS 190250
2006 11 27.25852 04 29 39.96 +22 51 14.1   691 – Steward Observatory, Kitt Peak-Spacewatch MPS 190250
2006 12 01.22526 04 24 46.82 +22 34 18.3 20.6 V 691 – Steward Observatory, Kitt Peak-Spacewatch MPS 190250
2006 12 01.24259 04 24 45.54 +22 34 13.5 20.2 V 691 – Steward Observatory, Kitt Peak-Spacewatch MPS 190250
2006 12 01.25991 04 24 44.23 +22 34 08.8 20.9 V 691 – Steward Observatory, Kitt Peak-Spacewatch MPS 190250
2006 12 27.14219 04 00 23.22 +20 52 25.3 20.5 V G96 – Mt. Lemmon Survey MPS 191753
2006 12 27.14832 04 00 23.00 +20 52 24.3 20.4 V G96 – Mt. Lemmon Survey MPS 191753
2006 12 27.15442 04 00 22.75 +20 52 23.5 20.8 V G96 – Mt. Lemmon Survey MPS 191753
2006 12 27.16052 04 00 22.53 +20 52 22.5 20.2 V G96 – Mt. Lemmon Survey MPS 191753
2008 03 29.24968 10 29 34.18 +05 20 10.5 20.7 V G96 – Mt. Lemmon Survey MPS 244553
2008 03 29.25642 10 29 33.90 +05 20 13.4 21.2 V G96 – Mt. Lemmon Survey MPS 244553
2008 03 29.26323 10 29 33.61 +05 20 15.9 21.1 V G96 – Mt. Lemmon Survey MPS 244553
2008 03 29.27002 10 29 33.28 +05 20 17.0 21.6 V G96 – Mt. Lemmon Survey MPS 244553
2009 06 27.37895 21 52 38.67 -09 25 35.0 19.4 V G96 – Mt. Lemmon Survey MPS 289259
2009 06 27.38168 21 52 38.82 -09 25 33.8 19.6 V G96 – Mt. Lemmon Survey MPS 289259
2009 06 27.38444 21 52 38.92 -09 25 32.5 19.6 V G96 – Mt. Lemmon Survey MPS 289259
2009 06 27.38726 21 52 39.03 -09 25 31.0 19.6 V G96 – Mt. Lemmon Survey MPS 289259
2009 07 24.26894 21 59 31.18 -06 59 14.6 18.3   704 – Lincoln Laboratory ETS, New Mexico MPS 290102
2009 07 24.29016 21 59 30.83 -06 59 09.0 19.4   704 – Lincoln Laboratory ETS, New Mexico MPS 290102
2009 07 24.30077 21 59 30.54 -06 59 07.6 19.6   704 – Lincoln Laboratory ETS, New Mexico MPS 290102
2009 07 26.05410 21 59 04.81 -06 54 35.0 18.7 V J75 – OAM Observatory, La Sagra MPS 290102
2009 07 26.06646 21 59 04.49 -06 54 32.9 18.4 V J75 – OAM Observatory, La Sagra MPS 290102
2009 07 26.07883 21 59 04.28 -06 54 31.8 18.7 V J75 – OAM Observatory, La Sagra MPS 290102
2009 07 28.25996 21 58 24.61 -06 49 44.9 19.4 V 691 – Steward Observatory, Kitt Peak-Spacewatch MPS 290102
2009 07 28.27757 21 58 24.19 -06 49 43.0 19.4 V 691 – Steward Observatory, Kitt Peak-Spacewatch MPS 290102
2009 07 28.29519 21 58 23.77 -06 49 40.9 19.3 V 691 – Steward Observatory, Kitt Peak-Spacewatch MPS 290102
2009 08 01.26100 21 56 49.21 -06 43 43.5 18.4 V 691 – Steward Observatory, Kitt Peak-Spacewatch MPS 290102
2009 08 01.27863 21 56 48.67 -06 43 42.6 18.4 V 691 – Steward Observatory, Kitt Peak-Spacewatch MPS 290102
2009 08 01.29625 21 56 48.12 -06 43 41.7 18.4 V 691 – Steward Observatory, Kitt Peak-Spacewatch MPS 290102
2009 08 11.82568 21 50 50.06 -06 43 48.7 17.6 V A50 – Andrushivka Astronomical Observatory MPS 292537
2009 08 11.82704 21 50 50.03 -06 43 48.9 17.7 V A50 – Andrushivka Astronomical Observatory MPS 292537
2009 08 11.82839 21 50 50.00 -06 43 49.3 17.6 V A50 – Andrushivka Astronomical Observatory MPS 292537
2009 08 11.86954 21 50 48.26 -06 43 51.4 17.6 V A50 – Andrushivka Astronomical Observatory MPS 292537
2009 08 15.29484 21 48 29.84 -06 48 21.2 18.0 V 703 – Catalina Sky Survey MPS 292537
2009 08 15.30201 21 48 29.52 -06 48 22.0 17.9 V 703 – Catalina Sky Survey MPS 292537
2009 08 15.30926 21 48 29.23 -06 48 22.2 18.1 V 703 – Catalina Sky Survey MPS 292537
2009 08 15.31655 21 48 28.83 -06 48 23.3 18.2 V 703 – Catalina Sky Survey MPS 292537
2009 08 16.31159 21 47 48.03 -06 50 03.6 17.9 R G68 – Sierra Stars Observatory, Markleeville MPS 292537
2009 08 16.33913 21 47 46.75 -06 50 07.1 17.9 R G68 – Sierra Stars Observatory, Markleeville MPS 292537
